Wetterdaten: Sonntag, 16.11.2014
Datum Zeit Temp. A. Feuchte A. Luftdruck Regen Wind Richtung Richtung Sonnenschein ET UV Solar Taupunkt Windchill Windben Empfang
16.11.2014 00:00 8,4 C 77 % 996,3 hPa 0,0 l/m 0,0 km/h (0 Bft) N-NO 23 0 min 0,000 mm 0,0 UV-I 0 W/m 4,6 C 8,4 C 0,0 km/h (0 Bft) 0,00 %
16.11.2014 00:15 8,5 C 76 % 995,9 hPa 0,0 l/m 5,4 km/h (1 Bft) O 98 0 min 0,000 mm 0,0 UV-I 0 W/m 4,5 C 8,5 C 7,9 km/h (2 Bft) 0,00 %
16.11.2014 00:30 8,6 C 76 % 995,8 hPa 0,0 l/m 3,2 km/h (1 Bft) O-SO 115 0 min 0,000 mm 0,0 UV-I 0 W/m 4,6 C 8,6 C 4,0 km/h (1 Bft) 0,00 %
16.11.2014 00:45 8,8 C 75 % 995,6 hPa 0,0 l/m 0,4 km/h (0 Bft) O-NO 65 0 min 0,000 mm 0,0 UV-I 0 W/m 4,6 C 8,8 C 4,0 km/h (1 Bft) 0,00 %
16.11.2014 01:00 9,0 C 75 % 995,4 hPa 0,0 l/m 1,4 km/h (1 Bft) O-SO 112 0 min 0,000 mm 0,0 UV-I 0 W/m 4,8 C 9,0 C 4,0 km/h (1 Bft) 0,00 %
16.11.2014 01:15 9,0 C 73 % 995,1 hPa 0,0 l/m 2,2 km/h (1 Bft) O-NO 61 0 min 0,000 mm 0,0 UV-I 0 W/m 4,4 C 9,0 C 4,0 km/h (1 Bft) 0,00 %
16.11.2014 01:30 9,0 C 74 % 995,0 hPa 0,0 l/m 0,0 km/h (0 Bft) S 176 0 min 0,000 mm 0,0 UV-I 0 W/m 4,6 C 9,0 C 0,0 km/h (0 Bft) 0,00 %
16.11.2014 01:45 9,5 C 70 % 994,9 hPa 0,0 l/m 4,3 km/h (1 Bft) O-SO 106 0 min 0,000 mm 0,0 UV-I 0 W/m 4,3 C 9,5 C 7,9 km/h (2 Bft) 0,00 %
16.11.2014 02:00 10,6 C 67 % 994,7 hPa 0,0 l/m 4,3 km/h (1 Bft) O-SO 121 0 min 0,000 mm 0,0 UV-I 0 W/m 4,7 C 10,6 C 7,9 km/h (2 Bft) 0,00 %
16.11.2014 02:15 10,4 C 68 % 994,8 hPa 0,0 l/m 4,7 km/h (1 Bft) O-SO 123 0 min 0,000 mm 0,0 UV-I 0 W/m 4,8 C 10,4 C 7,9 km/h (2 Bft) 0,00 %
16.11.2014 02:30 10,2 C 70 % 994,8 hPa 0,0 l/m 2,2 km/h (1 Bft) O 83 0 min 0,000 mm 0,0 UV-I 0 W/m 5,0 C 10,2 C 4,0 km/h (1 Bft) 0,00 %
16.11.2014 02:45 10,1 C 70 % 994,8 hPa 0,0 l/m 1,4 km/h (1 Bft) O-NO 73 0 min 0,000 mm 0,0 UV-I 0 W/m 4,9 C 10,1 C 4,0 km/h (1 Bft) 0,00 %
16.11.2014 03:00 10,1 C 69 % 994,7 hPa 0,0 l/m 5,8 km/h (2 Bft) O 80 0 min 0,000 mm 0,0 UV-I 0 W/m 4,7 C 10,1 C 11,9 km/h (2 Bft) 0,00 %
16.11.2014 03:15 10,9 C 67 % 994,8 hPa 0,0 l/m 1,8 km/h (1 Bft) SO 137 0 min 0,000 mm 0,0 UV-I 0 W/m 5,0 C 10,9 C 4,0 km/h (1 Bft) 0,00 %
16.11.2014 03:30 10,5 C 69 % 995,1 hPa 0,0 l/m 5,8 km/h (2 Bft) O-SO 119 0 min 0,000 mm 0,0 UV-I 0 W/m 5,1 C 10,5 C 11,9 km/h (2 Bft) 0,00 %
16.11.2014 03:45 10,5 C 70 % 995,2 hPa 0,0 l/m 2,9 km/h (1 Bft) S-SO 157 0 min 0,000 mm 0,0 UV-I 0 W/m 5,3 C 10,5 C 4,0 km/h (1 Bft) 0,00 %
16.11.2014 04:00 10,0 C 71 % 995,1 hPa 0,0 l/m 5,8 km/h (2 Bft) O 88 0 min 0,000 mm 0,0 UV-I 0 W/m 5,0 C 10,0 C 7,9 km/h (2 Bft) 0,00 %
16.11.2014 04:15 10,1 C 71 % 995,4 hPa 0,0 l/m 4,0 km/h (1 Bft) SO 138 0 min 0,000 mm 0,0 UV-I 0 W/m 5,1 C 10,1 C 4,0 km/h (1 Bft) 0,00 %
16.11.2014 04:30 10,0 C 71 % 996,3 hPa 0,0 l/m 0,0 km/h (0 Bft) S-SO 167 0 min 0,000 mm 0,0 UV-I 0 W/m 5,0 C 10,0 C 0,0 km/h (0 Bft) 0,00 %
16.11.2014 04:45 8,7 C 75 % 996,6 hPa 0,0 l/m 0,0 km/h (0 Bft) S 174 0 min 0,000 mm 0,0 UV-I 0 W/m 4,5 C 8,7 C 0,0 km/h (0 Bft) 0,00 %
16.11.2014 05:00 8,1 C 77 % 997,3 hPa 0,0 l/m 0,0 km/h (0 Bft) S 189 0 min 0,000 mm 0,0 UV-I 0 W/m 4,3 C 8,1 C 0,0 km/h (0 Bft) 0,00 %
16.11.2014 05:15 7,6 C 78 % 997,7 hPa 0,0 l/m 0,0 km/h (0 Bft) W-SW 237 0 min 0,000 mm 0,0 UV-I 0 W/m 4,0 C 7,6 C 0,0 km/h (0 Bft) 0,00 %
16.11.2014 05:30 7,4 C 79 % 998,5 hPa 0,0 l/m 3,2 km/h (1 Bft) W-SW 255 0 min 0,000 mm 0,0 UV-I 0 W/m 4,0 C 7,4 C 4,0 km/h (1 Bft) 0,00 %
16.11.2014 05:45 7,3 C 79 % 998,7 hPa 0,0 l/m 0,4 km/h (0 Bft) W-SW 251 0 min 0,000 mm 0,0 UV-I 0 W/m 3,9 C 7,3 C 4,0 km/h (1 Bft) 0,00 %
16.11.2014 06:00 7,3 C 79 % 998,8 hPa 0,0 l/m 7,9 km/h (2 Bft) W-SW 251 0 min 0,000 mm 0,0 UV-I 0 W/m 3,9 C 6,1 C 11,9 km/h (2 Bft) 0,00 %
16.11.2014 06:15 7,2 C 79 % 999,2 hPa 0,0 l/m 1,4 km/h (1 Bft) W-SW 255 0 min 0,000 mm 0,0 UV-I 0 W/m 3,8 C 7,2 C 4,0 km/h (1 Bft) 0,00 %
16.11.2014 06:30 7,5 C 78 % 999,5 hPa 0,0 l/m 4,7 km/h (1 Bft) SW 231 0 min 0,000 mm 0,0 UV-I 0 W/m 3,9 C 7,5 C 7,9 km/h (2 Bft) 0,00 %
16.11.2014 06:45 7,8 C 76 % 999,7 hPa 0,0 l/m 0,7 km/h (0 Bft) S-SW 212 0 min 0,000 mm 0,0 UV-I 0 W/m 3,8 C 7,8 C 4,0 km/h (1 Bft) 0,00 %
16.11.2014 07:00 8,0 C 76 % 1000,1 hPa 0,0 l/m 2,9 km/h (1 Bft) W-SW 252 0 min 0,000 mm 0,0 UV-I 0 W/m 4,0 C 8,0 C 4,0 km/h (1 Bft) 0,00 %
16.11.2014 07:15 8,1 C 76 % 1000,4 hPa 0,0 l/m 1,8 km/h (1 Bft) SW 225 0 min 0,000 mm 0,0 UV-I 0 W/m 4,1 C 8,1 C 4,0 km/h (1 Bft) 0,00 %
16.11.2014 07:30 8,2 C 75 % 1000,9 hPa 0,0 l/m 0,4 km/h (0 Bft) W-SW 253 0 min 0,000 mm 0,0 UV-I 0 W/m 4,0 C 8,2 C 4,0 km/h (1 Bft) 0,00 %
16.11.2014 07:45 8,3 C 75 % 1001,1 hPa 0,0 l/m 0,0 km/h (0 Bft) O-SO 118 0 min 0,000 mm 0,0 UV-I 6 W/m 4,1 C 8,3 C 0,0 km/h (0 Bft) 0,00 %
16.11.2014 08:00 8,3 C 75 % 1001,7 hPa 0,0 l/m 0,0 km/h (0 Bft) S-SW 206 15 min 0,000 mm 0,0 UV-I 82 W/m 4,1 C 8,3 C 0,0 km/h (0 Bft) 0,00 %
16.11.2014 08:15 8,6 C 73 % 1001,7 hPa 0,0 l/m 0,0 km/h (0 Bft) SW 217 15 min 0,000 mm 1,0 UV-I 159 W/m 4,0 C 8,6 C 0,0 km/h (0 Bft) 0,00 %
16.11.2014 08:30 8,9 C 72 % 1002,1 hPa 0,0 l/m 0,7 km/h (0 Bft) W-SW 255 15 min 0,000 mm 1,0 UV-I 169 W/m 4,1 C 8,9 C 4,0 km/h (1 Bft) 0,00 %
16.11.2014 08:45 9,0 C 72 % 1002,2 hPa 0,0 l/m 0,7 km/h (0 Bft) W-SW 251 15 min 0,000 mm 1,0 UV-I 230 W/m 4,2 C 9,0 C 4,0 km/h (1 Bft) 0,00 %
16.11.2014 09:00 9,4 C 71 % 1002,0 hPa 0,0 l/m 0,0 km/h (0 Bft) S 182 15 min 0,000 mm 1,0 UV-I 356 W/m 4,4 C 9,4 C 0,0 km/h (0 Bft) 0,00 %
16.11.2014 09:15 9,4 C 70 % 1002,3 hPa 0,0 l/m 0,4 km/h (0 Bft) SW 216 15 min 0,000 mm 1,0 UV-I 412 W/m 4,2 C 9,4 C 4,0 km/h (1 Bft) 0,00 %
16.11.2014 09:30 9,3 C 69 % 1002,4 hPa 0,0 l/m 0,7 km/h (0 Bft) S 175 15 min 0,000 mm 1,0 UV-I 444 W/m 3,9 C 9,3 C 4,0 km/h (1 Bft) 0,00 %
16.11.2014 09:45 10,3 C 63 % 1002,5 hPa 0,0 l/m 2,9 km/h (1 Bft) O 81 15 min 0,000 mm 1,0 UV-I 526 W/m 3,6 C 10,3 C 4,0 km/h (1 Bft) 0,00 %
16.11.2014 10:00 10,5 C 63 % 1002,6 hPa 0,0 l/m 0,0 km/h (0 Bft) O-SO 115 15 min 0,000 mm 1,0 UV-I 504 W/m 3,8 C 10,5 C 0,0 km/h (0 Bft) 0,00 %
16.11.2014 10:15 10,9 C 62 % 1002,7 hPa 0,0 l/m 4,7 km/h (1 Bft) SW 229 15 min 0,000 mm 2,0 UV-I 542 W/m 3,9 C 10,9 C 7,9 km/h (2 Bft) 0,00 %
16.11.2014 10:30 10,8 C 60 % 1002,6 hPa 0,0 l/m 3,2 km/h (1 Bft) W-SW 256 15 min 0,000 mm 2,0 UV-I 620 W/m 3,4 C 10,8 C 4,0 km/h (1 Bft) 0,00 %
16.11.2014 10:45 11,3 C 61 % 1002,4 hPa 0,0 l/m 0,7 km/h (0 Bft) W-SW 256 15 min 0,000 mm 2,0 UV-I 587 W/m 4,1 C 11,3 C 4,0 km/h (1 Bft) 0,00 %
16.11.2014 11:00 10,7 C 62 % 1002,6 hPa 0,0 l/m 0,7 km/h (0 Bft) S-SW 194 15 min 0,000 mm 2,0 UV-I 579 W/m 3,7 C 10,7 C 4,0 km/h (1 Bft) 0,00 %
16.11.2014 11:15 10,1 C 62 % 1002,5 hPa 0,0 l/m 3,2 km/h (1 Bft) W-SW 255 15 min 0,000 mm 2,0 UV-I 572 W/m 3,2 C 10,1 C 4,0 km/h (1 Bft) 0,00 %
16.11.2014 11:30 10,2 C 62 % 1002,5 hPa 0,0 l/m 0,7 km/h (0 Bft) W-SW 252 15 min 0,000 mm 2,0 UV-I 624 W/m 3,3 C 10,2 C 4,0 km/h (1 Bft) 0,00 %
16.11.2014 11:45 10,7 C 57 % 1002,6 hPa 0,0 l/m 10,8 km/h (2 Bft) W-SW 256 15 min 0,000 mm 2,0 UV-I 633 W/m 2,5 C 7,9 C 11,9 km/h (2 Bft) 0,00 %
16.11.2014 12:00 11,0 C 57 % 1002,7 hPa 0,0 l/m 2,9 km/h (1 Bft) W-SW 256 15 min 0,000 mm 2,0 UV-I 609 W/m 2,8 C 11,0 C 4,0 km/h (1 Bft) 0,00 %
16.11.2014 12:15 11,0 C 57 % 1002,7 hPa 0,0 l/m 4,7 km/h (1 Bft) W-SW 256 15 min 0,000 mm 2,0 UV-I 577 W/m 2,8 C 11,0 C 7,9 km/h (2 Bft) 0,00 %
16.11.2014 12:30 11,0 C 59 % 1002,9 hPa 0,0 l/m 4,7 km/h (1 Bft) W-SW 253 15 min 0,000 mm 1,0 UV-I 429 W/m 3,3 C 11,0 C 7,9 km/h (2 Bft) 0,00 %
16.11.2014 12:45 11,1 C 57 % 1002,9 hPa 0,0 l/m 2,9 km/h (1 Bft) W-SW 250 15 min 0,000 mm 2,0 UV-I 545 W/m 2,9 C 11,1 C 4,0 km/h (1 Bft) 0,00 %
16.11.2014 13:00 11,3 C 58 % 1003,1 hPa 0,0 l/m 0,0 km/h (0 Bft) W-SW 254 15 min 0,000 mm 2,0 UV-I 543 W/m 3,3 C 11,3 C 0,0 km/h (0 Bft) 0,00 %
16.11.2014 13:15 10,9 C 59 % 1003,1 hPa 0,0 l/m 1,4 km/h (1 Bft) W-SW 254 15 min 0,000 mm 1,0 UV-I 501 W/m 3,2 C 10,9 C 4,0 km/h (1 Bft) 0,00 %
16.11.2014 13:30 10,8 C 60 % 1003,2 hPa 0,0 l/m 0,4 km/h (0 Bft) W-NW 287 15 min 0,000 mm 1,0 UV-I 428 W/m 3,4 C 10,8 C 4,0 km/h (1 Bft) 0,00 %
16.11.2014 13:45 10,7 C 59 % 1003,5 hPa 0,0 l/m 0,0 km/h (0 Bft) SW 228 15 min 0,000 mm 1,0 UV-I 371 W/m 3,0 C 10,7 C 0,0 km/h (0 Bft) 0,00 %
16.11.2014 14:00 10,5 C 60 % 1003,3 hPa 0,0 l/m 0,0 km/h (0 Bft) W-SW 251 15 min 0,000 mm 1,0 UV-I 304 W/m 3,1 C 10,5 C 0,0 km/h (0 Bft) 0,00 %
16.11.2014 14:15 10,3 C 61 % 1003,6 hPa 0,0 l/m 0,0 km/h (0 Bft) S-SW 197 15 min 0,000 mm 1,0 UV-I 205 W/m 3,1 C 10,3 C 0,0 km/h (0 Bft) 0,00 %
16.11.2014 14:30 10,2 C 61 % 1003,8 hPa 0,0 l/m 0,0 km/h (0 Bft) W-NW 282 15 min 0,000 mm 1,0 UV-I 193 W/m 3,0 C 10,2 C 0,0 km/h (0 Bft) 0,00 %
16.11.2014 14:45 10,3 C 60 % 1003,7 hPa 0,0 l/m 0,7 km/h (0 Bft) W-NW 296 15 min 0,000 mm 1,0 UV-I 163 W/m 2,9 C 10,3 C 4,0 km/h (1 Bft) 0,00 %
16.11.2014 15:00 10,4 C 61 % 1003,8 hPa 0,0 l/m 0,0 km/h (0 Bft) SW 229 15 min 0,000 mm 1,0 UV-I 148 W/m 3,2 C 10,4 C 0,0 km/h (0 Bft) 0,00 %
16.11.2014 15:15 10,4 C 61 % 1003,9 hPa 0,0 l/m 0,0 km/h (0 Bft) S 184 0 min 0,000 mm 0,0 UV-I 70 W/m 3,2 C 10,4 C 0,0 km/h (0 Bft) 0,00 %
16.11.2014 15:30 10,2 C 61 % 1004,1 hPa 0,0 l/m 0,0 km/h (0 Bft) S 173 0 min 0,000 mm 0,0 UV-I 43 W/m 3,0 C 10,2 C 0,0 km/h (0 Bft) 0,00 %
16.11.2014 15:45 9,8 C 62 % 1004,0 hPa 0,0 l/m 0,0 km/h (0 Bft) S 173 0 min 0,000 mm 0,0 UV-I 0 W/m 2,9 C 9,8 C 0,0 km/h (0 Bft) 0,00 %
16.11.2014 16:00 9,5 C 66 % 1004,2 hPa 0,0 l/m 0,0 km/h (0 Bft) S 173 0 min 0,000 mm 0,0 UV-I 0 W/m 3,5 C 9,5 C 0,0 km/h (0 Bft) 0,00 %
16.11.2014 16:15 9,3 C 67 % 1004,2 hPa 0,0 l/m 0,0 km/h (0 Bft) S 173 0 min 0,000 mm 0,0 UV-I 0 W/m 3,5 C 9,3 C 0,0 km/h (0 Bft) 0,00 %
16.11.2014 16:30 9,0 C 67 % 1004,5 hPa 0,0 l/m 0,0 km/h (0 Bft) S 182 0 min 0,000 mm 0,0 UV-I 0 W/m 3,2 C 9,0 C 0,0 km/h (0 Bft) 0,00 %
16.11.2014 16:45 8,8 C 69 % 1004,6 hPa 0,0 l/m 0,0 km/h (0 Bft) O-SO 113 0 min 0,000 mm 0,0 UV-I 0 W/m 3,4 C 8,8 C 0,0 km/h (0 Bft) 0,00 %
16.11.2014 17:00 8,6 C 68 % 1004,6 hPa 0,0 l/m 0,0 km/h (0 Bft) O 80 0 min 0,000 mm 0,0 UV-I 0 W/m 3,0 C 8,6 C 0,0 km/h (0 Bft) 0,00 %
16.11.2014 17:15 8,3 C 72 % 1004,9 hPa 0,0 l/m 0,0 km/h (0 Bft) S 182 0 min 0,000 mm 0,0 UV-I 0 W/m 3,6 C 8,3 C 0,0 km/h (0 Bft) 0,00 %
16.11.2014 17:30 8,0 C 73 % 1004,7 hPa 0,0 l/m 0,0 km/h (0 Bft) S 176 0 min 0,000 mm 0,0 UV-I 0 W/m 3,5 C 8,0 C 0,0 km/h (0 Bft) 0,00 %
16.11.2014 17:45 7,9 C 73 % 1005,0 hPa 0,0 l/m 3,2 km/h (1 Bft) O-SO 104 0 min 0,000 mm 0,0 UV-I 0 W/m 3,4 C 7,9 C 7,9 km/h (2 Bft) 0,00 %
16.11.2014 18:00 7,9 C 73 % 1005,0 hPa 0,0 l/m 0,0 km/h (0 Bft) O-SO 104 0 min 0,000 mm 0,0 UV-I 0 W/m 3,4 C 7,9 C 0,0 km/h (0 Bft) 0,00 %
16.11.2014 18:15 7,4 C 73 % 1005,1 hPa 0,0 l/m 0,0 km/h (0 Bft) S-SW 193 0 min 0,000 mm 0,0 UV-I 0 W/m 2,9 C 7,4 C 0,0 km/h (0 Bft) 0,00 %
16.11.2014 18:30 7,1 C 75 % 1005,1 hPa 0,0 l/m 0,0 km/h (0 Bft) S-SW 198 0 min 0,000 mm 0,0 UV-I 0 W/m 3,0 C 7,1 C 0,0 km/h (0 Bft) 0,00 %
16.11.2014 18:45 7,0 C 74 % 1004,9 hPa 0,0 l/m 1,4 km/h (1 Bft) O 85 0 min 0,000 mm 0,0 UV-I 0 W/m 2,7 C 7,0 C 4,0 km/h (1 Bft) 0,00 %
16.11.2014 19:00 7,0 C 72 % 1004,9 hPa 0,0 l/m 0,4 km/h (0 Bft) S 175 0 min 0,000 mm 0,0 UV-I 0 W/m 2,3 C 7,0 C 4,0 km/h (1 Bft) 0,00 %
16.11.2014 19:15 6,7 C 74 % 1004,7 hPa 0,0 l/m 0,0 km/h (0 Bft) O 89 0 min 0,000 mm 0,0 UV-I 0 W/m 2,4 C 6,7 C 0,0 km/h (0 Bft) 0,00 %
16.11.2014 19:30 6,5 C 75 % 1004,8 hPa 0,0 l/m 0,0 km/h (0 Bft) S 173 0 min 0,000 mm 0,0 UV-I 0 W/m 2,4 C 6,5 C 0,0 km/h (0 Bft) 0,00 %
16.11.2014 19:45 6,6 C 73 % 1004,7 hPa 0,0 l/m 0,0 km/h (0 Bft) NO 54 0 min 0,000 mm 0,0 UV-I 0 W/m 2,1 C 6,6 C 0,0 km/h (0 Bft) 0,00 %
16.11.2014 20:00 6,6 C 73 % 1004,7 hPa 0,0 l/m 0,7 km/h (0 Bft) SO 129 0 min 0,000 mm 0,0 UV-I 0 W/m 2,1 C 6,6 C 4,0 km/h (1 Bft) 0,00 %
16.11.2014 20:15 6,4 C 75 % 1004,4 hPa 0,0 l/m 1,4 km/h (1 Bft) S 172 0 min 0,000 mm 0,0 UV-I 0 W/m 2,3 C 6,4 C 4,0 km/h (1 Bft) 0,00 %
16.11.2014 20:30 6,2 C 75 % 1004,4 hPa 0,0 l/m 0,0 km/h (0 Bft) S 173 0 min 0,000 mm 0,0 UV-I 0 W/m 2,1 C 6,2 C 0,0 km/h (0 Bft) 0,00 %
16.11.2014 20:45 5,9 C 76 % 1004,6 hPa 0,0 l/m 0,0 km/h (0 Bft) SO 133 0 min 0,000 mm 0,0 UV-I 0 W/m 2,0 C 5,9 C 0,0 km/h (0 Bft) 0,00 %
16.11.2014 21:00 5,8 C 76 % 1004,5 hPa 0,0 l/m 0,0 km/h (0 Bft) SW 228 0 min 0,000 mm 0,0 UV-I 0 W/m 1,9 C 5,8 C 0,0 km/h (0 Bft) 0,00 %
16.11.2014 21:15 5,4 C 79 % 1004,5 hPa 0,0 l/m 0,0 km/h (0 Bft) S 174 0 min 0,000 mm 0,0 UV-I 0 W/m 2,1 C 5,4 C 0,0 km/h (0 Bft) 0,00 %
16.11.2014 21:30 5,1 C 80 % 1004,7 hPa 0,0 l/m 0,0 km/h (0 Bft) S 190 0 min 0,000 mm 0,0 UV-I 0 W/m 1,9 C 5,1 C 0,0 km/h (0 Bft) 0,00 %
16.11.2014 21:45 4,9 C 80 % 1004,9 hPa 0,0 l/m 0,0 km/h (0 Bft) SW 232 0 min 0,000 mm 0,0 UV-I 0 W/m 1,7 C 4,9 C 0,0 km/h (0 Bft) 0,00 %
16.11.2014 22:00 4,8 C 80 % 1004,8 hPa 0,0 l/m 0,0 km/h (0 Bft) S 176 0 min 0,000 mm 0,0 UV-I 0 W/m 1,6 C 4,8 C 0,0 km/h (0 Bft) 0,00 %
16.11.2014 22:15 4,8 C 80 % 1004,7 hPa 0,0 l/m 0,7 km/h (0 Bft) O-SO 110 0 min 0,000 mm 0,0 UV-I 0 W/m 1,6 C 4,8 C 4,0 km/h (1 Bft) 0,00 %
16.11.2014 22:30 4,6 C 81 % 1004,8 hPa 0,0 l/m 0,0 km/h (0 Bft) SO 133 0 min 0,000 mm 0,0 UV-I 0 W/m 1,6 C 4,6 C 0,0 km/h (0 Bft) 0,00 %
16.11.2014 22:45 4,4 C 82 % 1004,8 hPa 0,0 l/m 0,0 km/h (0 Bft) S-SO 155 0 min 0,000 mm 0,0 UV-I 0 W/m 1,6 C 4,4 C 0,0 km/h (0 Bft) 0,00 %
16.11.2014 23:00 4,1 C 82 % 1004,8 hPa 0,0 l/m 0,0 km/h (0 Bft) S-SO 154 0 min 0,000 mm 0,0 UV-I 0 W/m 1,3 C 4,1 C 0,0 km/h (0 Bft) 0,00 %
16.11.2014 23:15 3,9 C 83 % 1005,2 hPa 0,0 l/m 0,0 km/h (0 Bft) S-SO 155 0 min 0,000 mm 0,0 UV-I 0 W/m 1,3 C 3,9 C 0,0 km/h (0 Bft) 0,00 %
16.11.2014 23:30 3,7 C 83 % 1005,0 hPa 0,0 l/m 0,0 km/h (0 Bft) S-SO 168 0 min 0,000 mm 0,0 UV-I 0 W/m 1,1 C 3,7 C 0,0 km/h (0 Bft) 0,00 %
16.11.2014 23:45 3,7 C 84 % 1005,1 hPa 0,0 l/m 0,0 km/h (0 Bft) S-SO 168 0 min 0,000 mm 0,0 UV-I 0 W/m 1,3 C 3,7 C 0,0 km/h (0 Bft) 0,00 %
_ Min-Zeit 23:30 11:45 02:00 - 00:00 - - - - - - 23:30 23:30 00:00 00:00
Minimum _ 3,7 C 57 % 994,7 hPa - 0,0 km/h (0 Bft) - - - - - - 1,1 C 3,7 C 0,0 km/h (0 Bft) 0,00 %
_ Max-Zeit 10:45 23:45 23:15 00:00 11:45 - - 08:00 00:00 10:15 11:45 03:45 10:45 03:00 00:00
Maximum _ 11,3 C 84 % 1005,2 hPa 0,0 l/m 10,8 km/h
W-SW (2 Bft)
- - 15 min 0,000 mm 2,0 UV-I 633 W/m 5,3 C 11,3 C 11,9 km/h
O (2 Bft)
0,00 %
Durchschnitt _ 8,5 C 71 % 1001,5 hPa #0,0 l/m 1,4 km/h (1 Bft) W-SW - #7:15 h #0,000 mm 1,4 UV-I 380 W/m 3,4 C 8,5 C 2,8 km/h (1 Bft) 0,00 %